TimeEST,TemperatureF,Dew PointF,Humidity,Sea Level PressureIn,VisibilityMPH,Wind Direction,Wind SpeedMPH,Gust SpeedMPH,PrecipitationIn,Events,Conditions,WindDirDegrees,DateUTC
12:09 AM,39.2,35.6,87,30.01,7.0,NNW,12.7,-,0.00,Rain,Light Rain,330,2013-02-16 05:09:00
12:46 AM,37.4,35.6,93,30.00,7.0,NW,5.8,-,0.01,Rain,Light Rain,320,2013-02-16 05:46:00
12:54 AM,37.9,34.0,86,30.01,7.0,NNW,5.8,-,0.01,Rain,Light Rain,340,2013-02-16 05:54:00
1:36 AM,37.4,33.8,87,30.00,10.0,NW,6.9,-,0.00,,Overcast,320,2013-02-16 06:36:00
1:54 AM,37.0,34.0,89,30.00,10.0,NW,8.1,-,0.00,Rain,Light Rain,310,2013-02-16 06:54:00
2:08 AM,37.4,33.8,87,30.00,9.0,NW,8.1,-,0.00,Rain,Light Rain,310,2013-02-16 07:08:00
2:35 AM,35.6,33.8,93,29.97,9.0,North,5.8,-,0.01,Rain,Light Rain,350,2013-02-16 07:35:00
2:54 AM,36.0,33.1,89,29.96,9.0,North,4.6,-,0.01,Rain,Light Rain,360,2013-02-16 07:54:00
3:29 AM,37.4,33.8,87,29.96,10.0,NNW,6.9,-,0.00,,Overcast,330,2013-02-16 08:29:00
3:54 AM,37.0,33.1,86,29.97,10.0,NNW,6.9,-,0.00,,Overcast,330,2013-02-16 08:54:00
4:07 AM,37.4,33.8,87,29.97,10.0,NNW,8.1,-,N/A,,Overcast,340,2013-02-16 09:07:00
4:54 AM,37.0,33.1,86,29.96,10.0,North,10.4,-,N/A,,Overcast,360,2013-02-16 09:54:00
5:09 AM,37.4,33.8,87,29.97,10.0,North,10.4,-,N/A,,Overcast,360,2013-02-16 10:09:00
5:54 AM,37.0,33.1,86,29.96,10.0,North,8.1,-,N/A,,Overcast,350,2013-02-16 10:54:00
6:54 AM,37.0,32.0,82,29.96,10.0,North,9.2,-,N/A,,Overcast,360,2013-02-16 11:54:00
7:54 AM,36.0,30.9,82,29.97,10.0,NNE,10.4,-,0.00,Snow,Light Snow,20,2013-02-16 12:54:00
8:20 AM,35.6,30.2,81,29.97,10.0,North,9.2,-,0.00,,Overcast,10,2013-02-16 13:20:00
8:54 AM,36.0,27.0,70,29.97,10.0,North,15.0,-,0.00,,Overcast,10,2013-02-16 13:54:00
9:54 AM,36.0,25.0,64,29.96,10.0,NNE,13.8,-,N/A,,Overcast,20,2013-02-16 14:54:00
10:54 AM,39.0,25.0,57,29.95,10.0,NNE,9.2,18.4,N/A,,Overcast,20,2013-02-16 15:54:00
11:54 AM,39.9,25.0,55,29.93,10.0,NNE,5.8,-,N/A,,Overcast,20,2013-02-16 16:54:00
12:54 PM,39.0,21.9,50,29.91,10.0,North,9.2,-,N/A,,Overcast,360,2013-02-16 17:54:00
1:54 PM,39.0,23.0,53,29.89,10.0,North,8.1,-,N/A,,Overcast,10,2013-02-16 18:54:00
2:54 PM,37.9,23.0,55,29.89,10.0,NNW,11.5,-,N/A,,Overcast,340,2013-02-16 19:54:00
3:31 PM,37.4,24.8,60,29.88,6.0,NNW,10.4,-,0.00,Snow,Light Snow,340,2013-02-16 20:31:00
3:50 PM,37.4,24.8,60,29.87,10.0,North,9.2,-,0.00,,Overcast,360,2013-02-16 20:50:00
3:54 PM,37.0,25.0,62,29.87,10.0,NNE,8.1,17.3,0.00,,Overcast,20,2013-02-16 20:54:00
4:12 PM,37.4,24.8,60,29.88,8.0,North,8.1,-,0.00,Snow,Light Snow,10,2013-02-16 21:12:00
4:54 PM,37.0,23.0,57,29.87,8.0,North,11.5,18.4,0.00,,Overcast,360,2013-02-16 21:54:00
5:54 PM,35.1,23.0,61,29.88,8.0,North,9.2,-,0.00,Snow,Light Snow,350,2013-02-16 22:54:00
6:54 PM,35.1,19.0,52,29.86,9.0,North,13.8,-,0.00,,Overcast,350,2013-02-16 23:54:00
7:02 PM,35.6,19.4,52,29.85,10.0,North,12.7,-,N/A,,Overcast,350,2013-02-17 00:02:00
7:54 PM,35.1,17.1,48,29.84,10.0,North,16.1,20.7,N/A,,Overcast,350,2013-02-17 00:54:00
8:54 PM,34.0,16.0,48,29.84,10.0,North,16.1,-,N/A,,Overcast,360,2013-02-17 01:54:00
9:54 PM,33.1,14.0,46,29.82,10.0,North,15.0,25.3,N/A,,Overcast,350,2013-02-17 02:54:00
10:54 PM,33.1,12.9,43,29.80,10.0,North,13.8,-,N/A,,Overcast,350,2013-02-17 03:54:00
11:54 PM,32.0,12.0,44,29.78,10.0,NNW,18.4,-,N/A,,Overcast,340,2013-02-17 04:54:00